Onweer radar more information blitzortung!


Regen radar more information rain snow radar


Meteo Sauwerd

Weerstation Alkmaar Centrum

Weerstation Luyksgestel

Website Noardburgum

Weerstation Noordbergum



Het weer levert geen direct gevaar op.    Er zijn geen waarschuwingen afgegeven.

Select another period ( hide this area )

Eenheden Periode Custom range Directly to
Metrisch Engels Beide
Dagelijkse Wekelijkse Maandelijkse Jaarlijkse
use both date-selectors for a custom range
previous Dag
With this date

WeatherUnderground graphs for this period ( click here )


Dagelijkse Samenvatting Woensdag 23 oktober 2019
Tijd Temp. ( °C ) Dew pt. ( °C ) Wind ( km/h ) van Windvlaag ( km/h ) Luchtdruk ( hPa ) Humid.( % ) Rainrate ( cm ) Zonneschijn ( W/m2 )
Hoog8,6 8,0 4,7 ZO ( 76/162 ) 8,0 1022,2 96 - 47
Gemiddeld6,9 6,3 1,4 ZO #38/114 3,1 1020,5 96 - 21 #13/114
Laag6,1 5,4 -   0,0 1018,8 95 -  
Dagelijkse Tabular details for Woensdag 23 oktober 2019
Tijd Temp. ( °C ) Dew pt. ( °C ) Wind ( km/h ) van Windvlaag ( km/h ) Luchtdruk ( hPa ) Humid.( % ) Rainrate ( cm ) Zonneschijn ( W/m2 )
00:00 7,2 6,5 1,4 ZZO 3,2 1022,2 95 - -
00:05 7,1 6,4 3,2 ZZO 4,8 1022,2 95 - -
00:10 7,1 6,4   Windstil 1,6 1022,2 95 - -
00:15 7,0 6,3   Windstil 1,6 1022,2 95 - -
00:20 6,9 6,2   Windstil   1022,2 95 - -
00:25 6,8 6,1   Windstil   1022,2 95 - -
00:30 6,8 6,1 1,4 ZZO 1,6 1022,2 95 - -
00:35 6,7 6,0 1,4 ZZO 1,6 1022,2 95 - -
00:40 6,7 6,0 1,4 ZZO 1,6 1022,2 95 - -
00:45 6,6 5,9 1,4 ZZO 1,6 1022,2 95 - -
00:50 6,5 5,8 1,4 ZZO 1,6 1022,2 95 - -
00:55 6,5 5,8   Windstil 1,6 1022,2 95 - -
01:00 6,4 5,7 1,4 ZZO 3,2 1022,2 95 - -
01:05 6,5 5,8 4,7 ZZO 4,8 1022,2 95 - -
01:10 6,6 5,9 1,4 ZZO 4,8 1022,2 95 - -
01:15 6,6 5,9 1,4 ZZO 3,2 1022,2 95 - -
01:20 6,6 5,9   Windstil 3,2 1022,2 95 - -
01:25 6,6 5,9   Windstil 1,6 1021,9 95 - -
01:30 6,4 5,7   Windstil 1,6 1021,9 95 - -
01:35 6,3 5,6 1,4 ZZO 3,2 1021,9 95 - -
01:40 6,3 5,6 3,2 ZZO 3,2 1021,9 95 - -
01:45 6,3 5,6 3,2 ZZO 4,8 1021,9 95 - -
01:50 6,3 5,6 1,4 ZZO 3,2 1021,6 95 - -
01:55 6,3 5,6 1,4 ZZO 3,2 1021,6 95 - -
02:00 6,6 5,9 4,7 ZO 4,8 1021,6 95 - -
02:05 6,7 6,0 1,4 ZO 6,4 1021,6 95 - -
02:10 6,7 6,0 1,4 ZO 3,2 1021,6 95 - -
02:15 6,5 5,8 1,4 ZO 3,2 1021,6 95 - -
02:20 6,4 5,7   Windstil 3,2 1021,6 95 - -
02:25 6,4 5,7   Windstil 1,6 1021,2 95 - -
02:30 6,3 5,6 1,4 ZO 3,2 1021,2 95 - -
02:35 6,3 5,6 1,4 ZO 3,2 1021,2 95 - -
02:40 6,2 5,5 1,4 ZO 3,2 1021,2 95 - -
02:45 6,2 5,5 1,4 ZO 3,2 1021,2 95 - -
02:50 6,2 5,5 1,4 ZO 3,2 1021,6 95 - -
02:55 6,2 5,5 1,4 ZO 3,2 1021,6 95 - -
03:00 6,3 5,6 3,2 ZO 3,2 1021,6 95 - -
03:05 6,4 5,7 1,4 ZO 3,2 1021,2 95 - -
03:10 6,3 5,6   Windstil 3,2 1021,2 95 - -
03:15 6,2 5,5   Windstil   1021,2 95 - -
03:20 6,1 5,4   Windstil   1021,2 95 - -
03:25 6,2 5,5   Windstil   1020,9 95 - -
03:30 6,1 5,4   Windstil   1020,9 95 - -
03:35 6,2 5,5   Windstil   1020,9 95 - -
03:40 6,3 5,6   Windstil   1020,5 95 - -
03:45 6,4 5,8   Windstil   1020,5 96 - -
03:50 6,6 6,0   Windstil 1,6 1020,5 96 - -
03:55 6,8 6,1 1,4 OZO 3,2 1020,5 95 - -
04:00 6,9 6,3   Windstil 1,6 1020,5 96 - -
04:05 7,1 6,5 1,4 OZO 3,2 1020,5 96 - -
04:10 7,1 6,4   Windstil 1,6 1020,5 95 - -
04:15 6,9 6,2   Windstil 1,6 1020,5 95 - -
04:20 6,8 6,2 3,2 OZO 3,2 1020,5 96 - -
04:25 6,8 6,2 1,4 ZO 4,8 1020,5 96 - -
04:30 7,0 6,4 3,2 ZO 4,8 1020,5 96 - -
04:35 6,9 6,3 3,2 ZZO 4,8 1020,5 96 - -
04:40 7,2 6,6 1,4 ZO 4,8 1020,5 96 - -
04:45 7,3 6,7 1,4 OZO 4,8 1020,5 96 - -
04:50 7,4 6,8 1,4 ZO 6,4 1020,5 96 - -
04:55 7,6 7,0 3,2 ZZO 6,4 1020,5 96 - -
05:00 7,7 7,1 3,2 ZO 3,2 1020,5 96 - -
05:05 7,7 7,1 3,2 ZO 3,2 1020,5 96 - -
05:10 7,7 7,1 1,4 ZZO 6,4 1020,5 96 - -
05:15 7,7 7,1 3,2 ZZO 8,0 1020,5 96 - -
05:20 7,6 7,0 3,2 ZZO 4,8 1020,2 96 - -
05:25 7,6 7,0 3,2 ZZO 6,4 1020,2 96 - -
05:30 7,6 7,0 3,2 ZZO 6,4 1020,2 96 - -
05:35 7,6 7,0 4,7 ZO 6,4 1020,2 96 - -
05:40 7,6 7,0 4,7 ZO 4,8 1020,2 96 - -
05:45 7,6 7,0 3,2 ZO 4,8 1020,2 96 - -
05:50 7,6 7,0 1,4 ZO 4,8 1020,2 96 - -
05:55 7,6 7,0 1,4 ZO 4,8 1020,2 96 - -
06:00 7,5 6,9 1,4 ZO 1,6 1020,2 96 - -
06:05 7,3 6,6 1,4 ZO 3,2 1019,9 95 - -
06:10 7,0 6,3 1,4 ZO 3,2 1019,9 95 - -
06:15 6,9 6,2   Windstil 3,2 1019,9 95 - -
06:20 6,8 6,1 1,4 ZO 3,2 1019,9 95 - -
06:25 6,6 5,9 1,4 ZO 3,2 1019,9 95 - -
06:30 6,6 5,9 1,4 ZO 3,2 1019,9 95 - -
06:35 6,6 5,9 1,4 ZO 1,6 1019,9 95 - -
06:40 6,4 5,8   Windstil 1,6 1019,9 96 - -
06:45 6,2 5,6 1,4 ZO 3,2 1019,5 96 - -
06:50 6,2 5,6   Windstil 3,2 1019,5 96 - -
06:55 6,1 5,4   Windstil 1,6 1019,5 95 - -
07:00 6,2 5,6 3,2 ZO 3,2 1019,5 96 - -
07:05 6,3 5,7 1,4 ZO 3,2 1019,5 96 - -
07:10 6,6 6,0   Windstil 1,6 1019,2 96 - -
07:15 6,6 6,0   Windstil   1019,2 96 - -
07:20 6,4 5,8   Windstil   1019,2 96 - -
07:25 6,5 5,9   Windstil 1,6 1018,8 96 - -
07:30 6,6 6,0   Windstil 1,6 1018,8 96 - -
07:35 6,6 6,0   Windstil   1018,8 96 - -
07:40 6,6 6,0   Windstil 1,6 1018,8 96 - -
07:45 6,8 6,2 1,4 ZO 1,6 1018,8 96 - -
07:50 6,8 6,2   Windstil   1018,8 96 - -
07:55 6,9 6,3   Windstil 3,2 1019,2 96 - -
08:00 7,0 6,4 1,4 ZO 3,2 1019,2 96 - -
08:05 7,1 6,5 3,2 ZO 4,8 1019,2 96 - -
08:10 7,3 6,7 1,4 ZO 4,8 1019,2 96 - -
08:15 7,5 6,9 1,4 ZO 4,8 1019,2 96 - -
08:20 7,6 7,0 1,4 OZO 3,2 1019,2 96 - -
08:25 7,6 7,0 3,2 OZO 6,4 1019,2 96 - 5
08:30 7,8 7,2 3,2 OZO 4,8 1019,2 96 - 5
08:35 7,8 7,2 3,2 OZO 4,8 1019,2 96 - 7
08:40 7,8 7,2 3,2 OZO 3,2 1019,2 96 - 9
08:45 7,9 7,3   Windstil 1,6 1019,2 96 - 12
08:50 7,9 7,3 1,4 OZO 4,8 1019,2 96 - 14
08:55 7,9 7,3 1,4 OZO 3,2 1019,2 96 - 18
09:00 8,1 7,5 1,4 OZO 3,2 1019,2 96 - 21
09:05 8,1 7,5 3,2 OZO 3,2 1019,2 96 - 26
09:10 8,2 7,6 1,4 OZO 3,2 1019,2 96 - 33
09:15 8,3 7,7 1,4 OZO 4,8 1019,5 96 - 37
09:20 8,4 7,8 1,4 OZO 4,8 1019,2 96 - 42
09:25 8,6 8,0 1,4 OZO 4,8 1019,2 96 - 47
Dagelijkse Samenvatting Woensdag 23 oktober 2019
Tijd Temp. ( °C ) Dew pt. ( °C ) Wind ( km/h ) van Windvlaag ( km/h ) Luchtdruk ( hPa ) Humid.( % ) Rainrate ( cm ) Zonneschijn ( W/m2 )
Hoog8,6 8,0 4,7 ZO ( 76/162 ) 8,0 1022,2 96 - 47
Gemiddeld6,9 6,3 1,4 ZO #38/114 3,1 1020,5 96 - 21 #13/114
Laag6,1 5,4 -   0,0 1018,8 95 -  
Dagelijkse Tabular details for Woensdag 23 oktober 2019
Tijd Temp. ( °C ) Dew pt. ( °C ) Wind ( km/h ) van Windvlaag ( km/h ) Luchtdruk ( hPa ) Humid.( % ) Rainrate ( cm ) Zonneschijn ( W/m2 )
00:00 7,2 6,5 1,4 ZZO 3,2 1022,2 95 - -
00:05 7,1 6,4 3,2 ZZO 4,8 1022,2 95 - -
00:10 7,1 6,4   Windstil 1,6 1022,2 95 - -
00:15 7,0 6,3   Windstil 1,6 1022,2 95 - -
00:20 6,9 6,2   Windstil   1022,2 95 - -
00:25 6,8 6,1   Windstil   1022,2 95 - -
00:30 6,8 6,1 1,4 ZZO 1,6 1022,2 95 - -
00:35 6,7 6,0 1,4 ZZO 1,6 1022,2 95 - -
00:40 6,7 6,0 1,4 ZZO 1,6 1022,2 95 - -
00:45 6,6 5,9 1,4 ZZO 1,6 1022,2 95 - -
00:50 6,5 5,8 1,4 ZZO 1,6 1022,2 95 - -
00:55 6,5 5,8   Windstil 1,6 1022,2 95 - -
01:00 6,4 5,7 1,4 ZZO 3,2 1022,2 95 - -
01:05 6,5 5,8 4,7 ZZO 4,8 1022,2 95 - -
01:10 6,6 5,9 1,4 ZZO 4,8 1022,2 95 - -
01:15 6,6 5,9 1,4 ZZO 3,2 1022,2 95 - -
01:20 6,6 5,9   Windstil 3,2 1022,2 95 - -
01:25 6,6 5,9   Windstil 1,6 1021,9 95 - -
01:30 6,4 5,7   Windstil 1,6 1021,9 95 - -
01:35 6,3 5,6 1,4 ZZO 3,2 1021,9 95 - -
01:40 6,3 5,6 3,2 ZZO 3,2 1021,9 95 - -
01:45 6,3 5,6 3,2 ZZO 4,8 1021,9 95 - -
01:50 6,3 5,6 1,4 ZZO 3,2 1021,6 95 - -
01:55 6,3 5,6 1,4 ZZO 3,2 1021,6 95 - -
02:00 6,6 5,9 4,7 ZO 4,8 1021,6 95 - -
02:05 6,7 6,0 1,4 ZO 6,4 1021,6 95 - -
02:10 6,7 6,0 1,4 ZO 3,2 1021,6 95 - -
02:15 6,5 5,8 1,4 ZO 3,2 1021,6 95 - -
02:20 6,4 5,7   Windstil 3,2 1021,6 95 - -
02:25 6,4 5,7   Windstil 1,6 1021,2 95 - -
02:30 6,3 5,6 1,4 ZO 3,2 1021,2 95 - -
02:35 6,3 5,6 1,4 ZO 3,2 1021,2 95 - -
02:40 6,2 5,5 1,4 ZO 3,2 1021,2 95 - -
02:45 6,2 5,5 1,4 ZO 3,2 1021,2 95 - -
02:50 6,2 5,5 1,4 ZO 3,2 1021,6 95 - -
02:55 6,2 5,5 1,4 ZO 3,2 1021,6 95 - -
03:00 6,3 5,6 3,2 ZO 3,2 1021,6 95 - -
03:05 6,4 5,7 1,4 ZO 3,2 1021,2 95 - -
03:10 6,3 5,6   Windstil 3,2 1021,2 95 - -
03:15 6,2 5,5   Windstil   1021,2 95 - -
03:20 6,1 5,4   Windstil   1021,2 95 - -
03:25 6,2 5,5   Windstil   1020,9 95 - -
03:30 6,1 5,4   Windstil   1020,9 95 - -
03:35 6,2 5,5   Windstil   1020,9 95 - -
03:40 6,3 5,6   Windstil   1020,5 95 - -
03:45 6,4 5,8   Windstil   1020,5 96 - -
03:50 6,6 6,0   Windstil 1,6 1020,5 96 - -
03:55 6,8 6,1 1,4 OZO 3,2 1020,5 95 - -
04:00 6,9 6,3   Windstil 1,6 1020,5 96 - -
04:05 7,1 6,5 1,4 OZO 3,2 1020,5 96 - -
04:10 7,1 6,4   Windstil 1,6 1020,5 95 - -
04:15 6,9 6,2   Windstil 1,6 1020,5 95 - -
04:20 6,8 6,2 3,2 OZO 3,2 1020,5 96 - -
04:25 6,8 6,2 1,4 ZO 4,8 1020,5 96 - -
04:30 7,0 6,4 3,2 ZO 4,8 1020,5 96 - -
04:35 6,9 6,3 3,2 ZZO 4,8 1020,5 96 - -
04:40 7,2 6,6 1,4 ZO 4,8 1020,5 96 - -
04:45 7,3 6,7 1,4 OZO 4,8 1020,5 96 - -
04:50 7,4 6,8 1,4 ZO 6,4 1020,5 96 - -
04:55 7,6 7,0 3,2 ZZO 6,4 1020,5 96 - -
05:00 7,7 7,1 3,2 ZO 3,2 1020,5 96 - -
05:05 7,7 7,1 3,2 ZO 3,2 1020,5 96 - -
05:10 7,7 7,1 1,4 ZZO 6,4 1020,5 96 - -
05:15 7,7 7,1 3,2 ZZO 8,0 1020,5 96 - -
05:20 7,6 7,0 3,2 ZZO 4,8 1020,2 96 - -
05:25 7,6 7,0 3,2 ZZO 6,4 1020,2 96 - -
05:30 7,6 7,0 3,2 ZZO 6,4 1020,2 96 - -
05:35 7,6 7,0 4,7 ZO 6,4 1020,2 96 - -
05:40 7,6 7,0 4,7 ZO 4,8 1020,2 96 - -
05:45 7,6 7,0 3,2 ZO 4,8 1020,2 96 - -
05:50 7,6 7,0 1,4 ZO 4,8 1020,2 96 - -
05:55 7,6 7,0 1,4 ZO 4,8 1020,2 96 - -
06:00 7,5 6,9 1,4 ZO 1,6 1020,2 96 - -
06:05 7,3 6,6 1,4 ZO 3,2 1019,9 95 - -
06:10 7,0 6,3 1,4 ZO 3,2 1019,9 95 - -
06:15 6,9 6,2   Windstil 3,2 1019,9 95 - -
06:20 6,8 6,1 1,4 ZO 3,2 1019,9 95 - -
06:25 6,6 5,9 1,4 ZO 3,2 1019,9 95 - -
06:30 6,6 5,9 1,4 ZO 3,2 1019,9 95 - -
06:35 6,6 5,9 1,4 ZO 1,6 1019,9 95 - -
06:40 6,4 5,8   Windstil 1,6 1019,9 96 - -
06:45 6,2 5,6 1,4 ZO 3,2 1019,5 96 - -
06:50 6,2 5,6   Windstil 3,2 1019,5 96 - -
06:55 6,1 5,4   Windstil 1,6 1019,5 95 - -
07:00 6,2 5,6 3,2 ZO 3,2 1019,5 96 - -
07:05 6,3 5,7 1,4 ZO 3,2 1019,5 96 - -
07:10 6,6 6,0   Windstil 1,6 1019,2 96 - -
07:15 6,6 6,0   Windstil   1019,2 96 - -
07:20 6,4 5,8   Windstil   1019,2 96 - -
07:25 6,5 5,9   Windstil 1,6 1018,8 96 - -
07:30 6,6 6,0   Windstil 1,6 1018,8 96 - -
07:35 6,6 6,0   Windstil   1018,8 96 - -
07:40 6,6 6,0   Windstil 1,6 1018,8 96 - -
07:45 6,8 6,2 1,4 ZO 1,6 1018,8 96 - -
07:50 6,8 6,2   Windstil   1018,8 96 - -
07:55 6,9 6,3   Windstil 3,2 1019,2 96 - -
08:00 7,0 6,4 1,4 ZO 3,2 1019,2 96 - -
08:05 7,1 6,5 3,2 ZO 4,8 1019,2 96 - -
08:10 7,3 6,7 1,4 ZO 4,8 1019,2 96 - -
08:15 7,5 6,9 1,4 ZO 4,8 1019,2 96 - -
08:20 7,6 7,0 1,4 OZO 3,2 1019,2 96 - -
08:25 7,6 7,0 3,2 OZO 6,4 1019,2 96 - 5
08:30 7,8 7,2 3,2 OZO 4,8 1019,2 96 - 5
08:35 7,8 7,2 3,2 OZO 4,8 1019,2 96 - 7
08:40 7,8 7,2 3,2 OZO 3,2 1019,2 96 - 9
08:45 7,9 7,3   Windstil 1,6 1019,2 96 - 12
08:50 7,9 7,3 1,4 OZO 4,8 1019,2 96 - 14
08:55 7,9 7,3 1,4 OZO 3,2 1019,2 96 - 18
09:00 8,1 7,5 1,4 OZO 3,2 1019,2 96 - 21
09:05 8,1 7,5 3,2 OZO 3,2 1019,2 96 - 26
09:10 8,2 7,6 1,4 OZO 3,2 1019,2 96 - 33
09:15 8,3 7,7 1,4 OZO 4,8 1019,5 96 - 37
09:20 8,4 7,8 1,4 OZO 4,8 1019,2 96 - 42
09:25 8,6 8,0 1,4 OZO 4,8 1019,2 96 - 47

Download your copy of this data-set  here

Our weather-data as stored at Weather Underground. Script ontwikkeld door Jim McMurry. Aangepast voor de template door Leuven-Template.eu

U vindt ons ook hier:

Het Weer Aktueel

UK Metoffice

European Weather Network

Weather Underground

AWEKAS

Citizen Weather Observer Program (CWOP)

HAMweather, WeatherForYou, PWS Weather

Apparatuur in gebruik:

Weerstation
Davis Vantage pro 2

Weerprogramma
Meteobridge

Weercomputer
TP-Link TL-WR703N

Webleverancier
Versio

Davis Vantage pro 2

Meteobridge

TP-Link TL-WR703N

Versio